Powrót do katalogu

STARLINK-37727

AktywnyŁącznośćSSO
NORAD 69481·PAYLOAD·🇺🇸 United States

Wystrzelony Jun 11, 2026 z Vandenberg Space Force Base

Loading…

Następne Przeloty (najbliższe 24 godziny)

TLE

ŚwieżeSource: CelesTrak SupGP

Epoka: Sep 15, 2026, 03:16 UTC

1 69481C 26131D   26258.13659722 -.00061677  00000+0 -19147-2 0  2589
2 69481  97.2839 279.0260 0001295 104.8920 203.7370 15.33468730    18

Śledź STARLINK-37727 w czasie rzeczywistym z AllMySat

Download on the App Store